This is the latest recevied weather packets stored in our database for station/object DG9MHV-10. If no packets are shown the sender has not sent any weather packets the latest 1 day(s).
| Time | Temp. | Humidity | Pressure | Rain* | Wind** | Luminosity | Snow |
|---|---|---|---|---|---|---|---|
| 1778046967 | 17.78° C | 100% | 1004.7 hPa | - | - | - | - |
| 1778046067 | 21.67° C | 100% | 1004.6 hPa | - | - | - | - |
| 1778045167 | 18.33° C | 100% | 1002.6 hPa | - | - | - | - |
| 1778044267 | 12.78° C | 100% | 1005.4 hPa | - | - | - | - |
| 1778040666 | 8.89° C | 100% | 1007.2 hPa | - | - | - | - |
| 1778039766 | 8.89° C | 100% | 1007.4 hPa | - | - | - | - |
| 1778038866 | 8.89° C | 100% | 1007.3 hPa | - | - | - | - |
| 1778037966 | 8.89° C | 100% | 1007.4 hPa | - | - | - | - |
| 1778037066 | 8.89° C | 100% | 1007.5 hPa | - | - | - | - |
| 1778036166 | 8.89° C | 100% | 1007.1 hPa | - | - | - | - |
| 1778035266 | 8.89° C | 100% | 1006.5 hPa | - | - | - | - |
| 1778034366 | 8.89° C | 100% | 1006.6 hPa | - | - | - | - |
| 1778033466 | 8.89° C | 100% | 1006.7 hPa | - | - | - | - |
| 1778032566 | 9.44° C | 100% | 1006.6 hPa | - | - | - | - |
| 1778031669 | 9.44° C | 100% | 1006.7 hPa | - | - | - | - |
| 1778028065 | 10° C | 100% | 1006.5 hPa | - | - | - | - |
| 1778027165 | 10° C | 100% | 1006.8 hPa | - | - | - | - |
| 1778024465 | 11.11° C | 100% | 1007.2 hPa | - | - | - | - |
| 1778023565 | 11.67° C | 100% | 1007.2 hPa | - | - | - | - |
| 1778022665 | 11.67° C | 100% | 1007.4 hPa | - | - | - | - |
| 1778021765 | 11.67° C | 100% | 1007.6 hPa | - | - | - | - |
* Rain since midnight (hover to see other rain measurements)
** Current wind speed in m/s (hover to see current wind gust speed)